Погода в Дакке

Бангладеш     23°46′00″N   90°22′51″E
темп.,
°C
ветер,
м/с
пор.,
м/с
влажн.,
%
обл.,
%
осадки,
мм/ч
давл.,
гПа
погр.,
м
17 июня, чт
чт1700:00+26ююв358899 0.8 1001319
03:00+25юв3591100 0.2 1000295
06:00+25вюв3591100 0.4 1000287
09:00+27юв468078 0.1 1002570
12:00+30ююв566985 0.6 10021023
15:00+29юв5675100 0.4 1000877
18:00+27ююв4681100 0.6 1001656
21:00+26юв488614 0.1 1003513
18 июня, пт
пт1800:00+26вюв38896 0.1 1003394
03:00+25вюв479116 0.0 1001337
06:00+25в4988100 0.0 1002480
09:00+27св368287 0.0 1003332
12:00+31в71065100 2.2 10011374
15:00+27вюв101682100 2.2 9991193
18:00+26вюв81585100 3.3 1000946
21:00+25юв81591100 1.0 1002644
19 июня, сб
сб1900:00+25вюв71586100 1.4 1002937
03:00+25вюв6148633 0.1 1000670
06:00+24вюв81494100 9.1 1000806
09:00+25вюв71388100 11.1 1001747
12:00+26вюв61192100 12.4 1001739
15:00+25в81488100 3.5 999786
18:00+25ююв101595100 14.1 999892
21:00+25юв4995100 2.2 1001476
20 июня, вс
вс2000:00+24в4797100 5.8 1001354
03:00+24вюв3598100 11.9 1000207
06:00+25вюв3597100 15.4 1001293
09:00+25юв2597100 9.4 1001314
12:00+27ююв4687100 21.1 1002608
15:00+27юв5786100 3.7 1001687
18:00+26юв5991100 6.8 1001493
21:00+25вюв489594 1.4 1003324
21 июня, пн
пн2100:00+25вюв4896100 2.1 1002272
03:00+25вюв489754 0.5 1001241
06:00+25вюв379523 0.7 1002221
09:00+30юв567241 0.1 1003911
12:00+32ююв566276 2.1 10011389
15:00+33ююв676171 1.4 9991453
18:00+31ююв696914 2.1 999819
21:00+29ююв49797 0.1 1001511